Location: ????????
(38.4362°N, 22.8767°E)
Time: 13:03:30
(UTC+00:00)

Cosmos 1655 Rocket - Pass Details

Date: 23 April 2024
Orbit: 971 x 1005 km, 83.0° (Epoch: 18 May)

Event Time Altitude Azimuth Distance (km) Brightness Sun altitude
Exits shadow 02:30:23 11° 204° (SSW) 2,670 5.8 -13.6°
Maximum altitude 02:36:19 53° 280° (W) 1,176 4.2 -12.6°
Drops below altitude 10° 02:42:25 10° 357° (N) 2,733 6.7 -11.5°
Sets 02:45:01 0° 2° (N) 3,688 7.4 -11.1°
